Cloud_Cover
100 92 100 100 100 100 89 25 26 25 20 14 0 0 0 0 0 0 0 1 24 5 4 0 0 0 0 0 0 0 0 0 3 100 92 27 16 5 4 0 3 3 4 5 45
22 100 100 100 100 100 100 24 33 26 21 17 0 0 0 6 0 0 0 3 6 5 3 0 0 0 0 0 0 0 0 0 0 30 11 5 5 0 0 0 0 0 5 28 50
100 100 100 100 100 100 100 20 25 25 12 2 0 0 0 0 0 0 0 0 14 60 2 2 2 0 0 0 0 0 0 0 0 0 0 0 0 0 0 0 0 0 61 99 46
100 100 100 100 100 100 100 73 32 22 12 0 0 0 0 0 0 0 0 5 86 2 1 0 0 0 0 0 0 0 0 0 0 0 0 0 0 0 0 0 0 0 0 29 7
100 100 100 100 100 100 100 100 79 31 13 0 0 0 0 0 0 0 0 4 25 5 1 1 5 0 0 0 0 0 0 0 0 0 0 0 0 0 0 0 0 0 0 0 0
100 100 100 100 100 100 100 100 100 39 5 0 0 0 0 0 0 0 0 0 11 14 8 5 5 0 0 0 0 0 0 0 0 0 0 0 0 0 0 0 0 0 0 0 0
100 100 100 100 100 100 100 100 99 23 3 0 0 0 0 0 0 0 0 0 45 5 4 0 0 0 0 0 0 0 0 0 0 0 0 0 0 0 0 0 0 0 0 0 0
100 100 100 100 100 100 100 99 29 6 0 0 0 0 0 0 0 0 0 2 4 5 1 3 0 0 0 0 0 0 0 0 0 0 0 0 0 0 0 0 0 0 0 0 0
100 100 100 100 100 100 86 19 9 0 0 0 0 0 0 0 0 0 0 0 0 0 0 3 0 0 0 2 5 3 0 0 0 0 0 0 0 0 0 0 0 0 0 0 0
100 100 100 100 100 100 2 1 0 0 0 0 0 0 0 0 0 0 0 0 0 0 0 4 1 2 41 6 5 0 0 0 0 0 0 0 0 0 0 0 0 0 0 0 6
100 100 100 100 100 100 12 0 0 0 0 0 0 0 0 0 0 0 0 0 0 0 0 4 0 37 82 5 5 0 0 0 0 0 0 0 0 0 0 0 0 0 0 0 5
100 100 100 100 100 100 13 0 0 0 0 0 0 0 0 0 0 0 0 0 0 0 0 0 0 46 5 5 5 5 1 0 0 0 0 0 0 0 0 0 0 0 0 0 0
100 100 100 100 100 42 0 0 0 0 0 0 0 0 0 0 0 0 0 0 0 0 0 0 2 5 3 5 4 0 1 5 0 0 0 0 0 0 0 0 0 0 0 0 0
100 100 100 100 16 0 0 0 0 0 0 0 0 0 0 0 0 0 0 0 0 0 0 0 4 3 0 0 0 0 3 1 0 0 0 0 0 0 0 0 0 0 2 5 4
100 100 100 98 0 0 0 0 0 0 0 0 0 0 0 0 0 0 0 0 0 0 0 0 0 0 0 0 0 0 0 0 0 0 0 0 0 0 0 0 4 0 5 5 4
100 100 99 33 29 0 0 0 0 0 0 0 0 0 0 0 0 0 0 0 0 0 0 0 0 0 0 5 0 0 0 0 0 0 0 3 0 0 0 0 5 2 5 5 2
100 100 80 0 0 0 0 0 0 0 0 0 0 0 0 0 0 0 0 0 0 0 0 0 0 0 0 0 2 0 0 0 0 0 0 0 0 0 4 0 0 0 0 5 5
100 96 8 0 0 0 0 0 0 0 0 0 0 0 0 0 0 0 0 0 0 0 0 0 0 0 0 0 0 0 0 0 2 3 0 0 0 2 0 0 0 0 3 4 5
76 18 0 0 0 0 0 0 0 0 0 0 0 0 0 0 0 0 0 0 0 0 0 0 1 0 0 0 0 0 0 0 5 10 5 3 5 67 0 0 0 0 3 0 0
0 0 0 0 0 0 0 0 0 0 0 0 0 0 0 0 0 0 0 0 5 3 5 5 74 3 0 0 0 0 0 0 0 26 5 5 5 5 8 5 3 4 1 2 0
0 0 0 0 0 0 0 0 1 0 0 0 0 0 0 0 0 0 0 0 0 21 79 9 37 56 12 8 1 0 0 0 0 0 0 34 100 90 27 81 97 100 100 28 6
0 0 0 0 0 0 0 0 2 2 0 0 0 0 0 0 0 0 2 0 0 0 0 4 4 5 90 5 5 5 0 0 0 0 0 0 28 100 100 100 100 100 85 100 89
0 0 0 0 0 0 0 0 0 0 0 0 0 0 0 0 0 3 5 63 98 23 1 2 12 39 6 5 5 19 42 5 0 0 0 0 8 56 72 65 82 97 90 52 49
2 0 0 0 0 0 38 0 0 2 0 0 0 1 4 0 0 13 5 4 98 89 71 45 90 92 5 5 1 0 5 5 3 0 0 0 12 71 46 14 18 33 65 68 66
0 0 0 0 0 0 4 0 0 0 0 0 2 3 0 4 96 3 7 6 26 84 93 30 37 30 5 5 5 4 3 2 0 0 0 0 0 2 48 34 5 9 9 7 5
0 0 0 0 0 0 0 0 0 0 0 0 0 100 100 97 93 0 5 5 87 66 11 7 32 100 90 5 70 70 76 7 5 5 5 3 0 0 5 5 5 5 5 5 6
0 0 0 0 0 0 0 0 0 0 0 0 9 100 86 57 5 0 5 100 95 28 36 5 5 5 100 12 60 100 20 5 5 5 5 5 5 5 1 5 5 5 10 5 5